FW0314 Weather Reports


Display with metric or nautical units.
time (UTC)temp
F
wind
direction
speed
MPH
gust
MPH
rain 1hr
in
rain 24hr
in
rain mn
in
humidity
%
barometer
mb
20260503220025 74 18 4.0 12.0 0.00 0.00 0.00 37 1012.5
20260503215505 74 24 3.0 17.0 0.00 0.00 0.00 37 1012.7
20260503215004 74 36 4.0 17.0 0.00 0.00 0.00 39 1012.7
20260503214504 73 36 4.0 17.0 0.00 0.00 0.00 38 1012.7
20260503214004 74 30 4.0 17.0 0.00 0.00 0.00 39 1012.7
20260503213504 74 16 5.0 17.0 0.00 0.00 0.00 37 1012.7
20260503213004 74 10 5.0 14.0 0.00 0.00 0.00 38 1012.7
20260503212504 74 12 4.0 14.0 0.00 0.00 0.00 37 1012.8
20260503212004 74 9 4.0 11.0 0.00 0.00 0.00 39 1012.7
20260503211525 73 22 4.0 11.0 0.00 0.00 0.00 39 1012.8
20260503211004 74 32 4.0 12.0 0.00 0.00 0.00 38 1012.9
20260503210504 73 18 4.0 13.0 0.00 0.00 0.00 40 1012.8
20260503210004 73 4 4.0 13.0 0.00 0.00 0.00 38 1012.9
20260503205504 73 16 4.0 13.0 0.00 0.00 0.00 40 1013.0
20260503205004 73 26 4.0 13.0 0.00 0.00 0.00 39 1013.1
20260503204525 73 20 3.0 13.0 0.00 0.00 0.00 39 1013.1
20260503204004 72 7 3.0 12.0 0.00 0.00 0.00 43 1013.2
20260503203525 72 18 4.0 12.0 0.00 0.00 0.00 44 1013.2
20260503203004 72 21 4.0 12.0 0.00 0.00 0.00 43 1013.2
20260503202504 71 15 3.0 12.0 0.00 0.00 0.00 44 1013.3
20260503202004 71 4 3.0 12.0 0.00 0.00 0.00 44 1013.4
20260503201504 71 19 4.0 12.0 0.00 0.00 0.00 45 1013.4
20260503201025 71 36 4.0 12.0 0.00 0.00 0.00 45 1013.5
20260503200004 70 7 3.0 9.0 0.00 0.00 0.00 46 1013.7
20260503195504 71 26 3.0 9.0 0.00 0.00 0.00 47 1013.7
20260503195003 70 29 3.0 10.0 0.00 0.00 0.00 49 1013.8
20260503194504 70 21 3.0 10.0 0.00 0.00 0.00 49 1013.8
20260503194003 70 25 3.0 10.0 0.00 0.00 0.00 50 1013.7
20260503193525 70 29 3.0 10.0 0.00 0.00 0.00 51 1013.8
20260503193004 69 32 3.0 10.0 0.00 0.00 0.00 52 1013.9
20260503192525 69 26 3.0 10.0 0.00 0.00 0.00 53 1013.9
20260503192004 68 24 4.0 10.0 0.00 0.00 0.00 54 1014.1
20260503191504 68 34 4.0 10.0 0.00 0.00 0.00 52 1014.2
20260503191004 68 32 4.0 10.0 0.00 0.00 0.00 52 1014.1
20260503190504 69 15 4.0 15.0 0.00 0.00 0.00 51 1014.2
20260503190004 69 19 3.0 15.0 0.00 0.00 0.00 49 1014.1
20260503185504 69 36 2.0 15.0 0.00 0.00 0.00 52 1014.1
20260503185004 69 23 3.0 15.0 0.00 0.00 0.00 50 1014.2
20260503184503 69 13 3.0 15.0 0.00 0.00 0.00 49 1014.2
20260503184004 70 19 3.0 10.0 0.00 0.00 0.00 51 1014.3
20260503183524 69 38 3.0 10.0 0.00 0.00 0.00 52 1014.3
20260503183004 69 43 3.0 11.0 0.00 0.00 0.00 53 1014.3
20260503182503 69 17 3.0 11.0 0.00 0.00 0.00 54 1014.4
20260503182004 68 16 3.0 14.0 0.00 0.00 0.00 55 1014.4
20260503181504 68 27 4.0 14.0 0.00 0.00 0.00 56 1014.5
20260503181004 67 23 5.0 14.0 0.00 0.00 0.00 55 1014.4
20260503180503 67 27 5.0 14.0 0.00 0.00 0.00 56 1014.4
20260503180004 67 23 6.0 16.0 0.00 0.00 0.00 55 1014.4
20260503175525 67 20 5.0 16.0 0.00 0.00 0.00 55 1014.5
20260503175004 67 23 4.0 16.0 0.00 0.00 0.00 55 1014.6
20260503174503 67 20 5.0 16.0 0.00 0.00 0.00 56 1014.7
20260503174003 67 20 5.0 12.0 0.00 0.00 0.00 55 1014.8
20260503173524 67 16 4.0 12.0 0.00 0.00 0.00 56 1014.7
20260503173024 67 20 4.0 12.0 0.00 0.00 0.00 56 1014.7
20260503172504 67 29 4.0 12.0 0.00 0.00 0.00 55 1014.7
20260503172004 67 26 4.0 14.0 0.00 0.00 0.00 56 1014.6
20260503171504 67 27 4.0 14.0 0.00 0.00 0.00 57 1014.6
20260503171004 66 19 4.0 14.0 0.00 0.00 0.00 57 1014.7
20260503170503 66 21 5.0 14.0 0.00 0.00 0.00 57 1014.7
20260503151004 61 30 4.0 9.0 0.00 0.00 0.00 64 1014.9
20260503150504 61 31 4.0 9.0 0.00 0.00 0.00 64 1014.9
20260503131025 58 30 3.0 9.0 0.00 0.00 0.00 66 1014.5
20260503130504 58 27 3.0 9.0 0.00 0.00 0.00 66 1014.5
20260503110503 57 36 1.0 5.0 0.00 0.00 0.00 68 1014.8
20260503090503 58 26 1.0 7.0 0.00 0.00 0.00 65 1014.9
20260503081503 60 18 0.0 2.0 0.00 0.00 0.00 60 1015.0
20260503081003 60 21 0.0 2.0 0.00 0.00 0.00 60 1015.0
20260503080503 61 24 0.0 2.0 0.00 0.00 0.00 60 1015.1
20260503072505 62 47 1.0 5.0 0.00 0.00 0.00 55 1014.9
20260503072005 62 51 1.0 5.0 0.00 0.00 0.00 55 1014.8
20260503071526 62 43 1.0 5.0 0.00 0.00 0.00 55 1014.9
20260503071005 62 30 1.0 5.0 0.00 0.00 0.00 55 1014.8
20260503070505 63 31 1.0 4.0 0.00 0.00 0.00 54 1014.8
20260503055005 64 5 1.0 3.0 0.00 0.00 0.00 50 1014.6
20260503054526 64 5 1.0 3.0 0.00 0.00 0.00 50 1014.6
20260503054005 65 5 1.0 3.0 0.00 0.00 0.00 50 1014.6
20260503053505 65 5 1.0 3.0 0.00 0.00 0.00 49 1014.6
20260503053005 65 4 1.0 4.0 0.00 0.00 0.00 48 1014.6
20260503052505 65 3 1.0 4.0 0.00 0.00 0.00 48 1014.7
20260503052005 65 17 1.0 4.0 0.00 0.00 0.00 48 1014.7
20260503051505 65 23 1.0 4.0 0.00 0.00 0.00 47 1014.7
20260503051005 66 14 1.0 4.0 0.00 0.00 0.00 47 1014.6
20260503050505 66 12 1.0 4.0 0.00 0.00 0.00 47 1014.6
20260503050026 66 15 1.0 4.0 0.00 0.00 0.00 47 1014.6
20260503045505 66 8 1.0 4.0 0.00 0.00 0.00 46 1014.6
20260503045005 67 360 1.0 3.0 0.00 0.00 0.00 46 1014.6
20260503044505 67 360 1.0 3.0 0.00 0.00 0.00 45 1014.5
20260503044026 67 2 1.0 3.0 0.00 0.00 0.00 45 1014.5
20260503043505 67 10 1.0 3.0 0.00 0.00 0.00 45 1014.4
20260503043005 67 11 1.0 3.0 0.00 0.00 0.00 45 1014.5
20260503042505 67 2 1.0 3.0 0.00 0.00 0.00 44 1014.4
20260503042005 67 355 1.0 3.0 0.00 0.00 0.00 44 1014.4
20260503041505 67 355 1.0 3.0 0.00 0.00 0.00 44 1014.4
20260503041026 67 359 1.0 3.0 0.00 0.00 0.00 44 1014.3
20260503040505 68 4 1.0 3.0 0.00 0.00 0.00 44 1014.2
20260503040005 68 11 1.0 3.0 0.00 0.00 0.00 44 1014.2
20260503035526 68 11 1.0 3.0 0.00 0.00 0.00 44 1014.0
20260503035005 68 8 1.0 3.0 0.00 0.00 0.00 44 1014.1
20260503034505 68 4 1.0 4.0 0.00 0.00 0.00 44 1014.0
20260503034005 68 5 1.0 4.0 0.00 0.00 0.00 44 1013.8
20260503033526 68 12 1.0 5.0 0.00 0.00 0.00 44 1013.8
20260503033005 68 7 1.0 5.0 0.00 0.00 0.00 44 1013.9
20260503032505 68 7 2.0 5.0 0.00 0.00 0.00 44 1013.8
20260503032005 68 16 2.0 5.0 0.00 0.00 0.00 44 1013.6
20260503031505 68 27 2.0 5.0 0.00 0.00 0.00 44 1013.6
20260503031026 68 30 2.0 8.0 0.00 0.00 0.00 44 1013.6
20260503030506 68 25 2.0 8.0 0.00 0.00 0.00 44 1013.6
20260503030005 69 10 1.0 8.0 0.00 0.00 0.00 44 1013.6
20260503025505 69 20 2.0 8.0 0.00 0.00 0.00 44 1013.5
20260503025005 69 37 2.0 6.0 0.00 0.00 0.00 44 1013.5
20260503024505 69 43 2.0 6.0 0.00 0.00 0.00 44 1013.5
20260503024005 69 61 2.0 5.0 0.00 0.00 0.00 43 1013.5
20260503023505 69 64 2.0 6.0 0.00 0.00 0.00 44 1013.5
20260503023005 70 33 2.0 6.0 0.00 0.00 0.00 43 1013.5
20260503022505 70 23 2.0 9.0 0.00 0.00 0.00 43 1013.5
20260503022005 70 21 3.0 9.0 0.00 0.00 0.00 42 1013.5
20260503021505 70 16 3.0 9.0 0.00 0.00 0.00 43 1013.5
20260503021005 70 19 3.0 9.0 0.00 0.00 0.00 43 1013.5
20260503020505 70 23 3.0 9.0 0.00 0.00 0.00 43 1013.5
20260503020005 70 4 2.0 9.0 0.00 0.00 0.00 43 1013.6
20260503015505 70 358 2.0 5.0 0.00 0.00 0.00 44 1013.7
20260503015005 70 29 1.0 6.0 0.00 0.00 0.00 43 1013.8
20260503014505 70 38 2.0 6.0 0.00 0.00 0.00 44 1013.9
20260503014005 70 29 2.0 6.0 0.00 0.00 0.00 43 1013.9
20260503013505 71 14 3.0 6.0 0.00 0.00 0.00 43 1013.9
20260503013005 71 24 2.0 6.0 0.00 0.00 0.00 42 1013.8
20260503012505 71 32 2.0 6.0 0.00 0.00 0.00 42 1013.9
20260503012005 71 18 2.0 6.0 0.00 0.00 0.00 42 1014.0
20260503011005 71 25 2.0 8.0 0.00 0.00 0.00 43 1013.9
20260503010526 71 30 3.0 8.0 0.00 0.00 0.00 43 1013.9
20260503010026 71 35 3.0 8.0 0.00 0.00 0.00 43 1013.9
20260503005505 71 31 2.0 8.0 0.00 0.00 0.00 43 1013.9
20260503005005 71 34 3.0 8.0 0.00 0.00 0.00 44 1013.9
20260503004505 71 38 3.0 8.0 0.00 0.00 0.00 43 1013.9
20260503004005 71 36 3.0 10.0 0.00 0.00 0.00 43 1013.9
20260503003504 71 39 3.0 10.0 0.00 0.00 0.00 44 1014.1
20260503003005 72 30 3.0 10.0 0.00 0.00 0.00 44 1014.0
20260503002526 72 27 3.0 10.0 0.00 0.00 0.00 44 1014.0
20260503002005 72 30 3.0 10.0 0.00 0.00 0.00 44 1014.0
20260503001504 72 31 3.0 9.0 0.00 0.00 0.00 46 1014.0
20260503001005 71 29 4.0 9.0 0.00 0.00 0.00 45 1014.0
20260503000505 72 22 4.0 9.0 0.00 0.00 0.00 45 1013.9
20260503000005 72 8 3.0 9.0 0.00 0.00 0.00 45 1014.1
20260502235526 72 4 3.0 10.0 0.00 0.00 0.00 45 1014.2
20260502235005 72 19 3.0 10.0 0.00 0.00 0.00 46 1014.1
20260502234526 72 12 3.0 10.0 0.00 0.00 0.00 46 1014.3
20260502234004 71 11 3.0 10.0 0.00 0.00 0.00 46 1014.3
20260502233504 71 10 3.0 10.0 0.00 0.00 0.00 45 1014.3
20260502233004 72 26 3.0 9.0 0.00 0.00 0.00 45 1014.5
20260502232526 72 50 2.0 10.0 0.00 0.00 0.00 46 1014.5
20260502231504 71 5 2.0 10.0 0.00 0.00 0.00 47 1014.6
20260502231004 71 21 3.0 10.0 0.00 0.00 0.00 49 1014.6
20260502230504 70 22 3.0 10.0 0.00 0.00 0.00 48 1014.7
20260502230004 70 20 3.0 10.0 0.00 0.00 0.00 50 1014.8
20260502225504 70 17 3.0 11.0 0.00 0.00 0.00 50 1014.9
20260502225004 70 16 3.0 13.0 0.00 0.00 0.00 51 1015.0
20260502224526 69 21 4.0 13.0 0.00 0.00 0.00 51 1015.1
20260502224004 69 26 3.0 13.0 0.00 0.00 0.00 53 1015.0
20260502223530 69 33 4.0 13.0 0.00 0.00 0.00 53 1015.2
20260502223005 69 31 4.0 13.0 0.00 0.00 0.00 54 1015.3
20260502222504 68 25 4.0 12.0 0.00 0.00 0.00 55 1015.3
20260502221526 68 42 4.0 14.0 0.00 0.00 0.00 54 1015.5
20260502221004 68 24 4.0 14.0 0.00 0.00 0.00 54 1015.7
20260502220505 68 24 5.0 15.0 0.00 0.00 0.00 53 1015.7